カタログに戻る

STARLINK-34798

運用中通信SSO
NORAD 65063·PAYLOAD·🇺🇸 United States

打ち上げ Jul 31, 2025 から Vandenberg Space Force Base

Loading…

次のパス (今後24時間)

TLE

最新Source: CelesTrak SupGP

元期: Sep 15, 2026, 03:35 UTC

1 65063C 25165H   26258.14979167  .02172400  00000+0  86162-1 0  2583
2 65063  97.2841 329.4713 0001488  90.1601  25.4200 15.24351169    11

AllMySatでSTARLINK-34798をリアルタイム追跡

Download on the App Store